TimeCDT,TemperatureF,Dew PointF,Humidity,Sea Level PressureIn,VisibilityMPH,Wind Direction,Wind SpeedMPH,Gust SpeedMPH,PrecipitationIn,Events,Conditions,WindDirDegrees,DateUTC
12:15 AM,46.4,35.6,66,29.86,10.0,NW,6.9,-,N/A,,Overcast,310,2011-10-19 05:15:00
12:35 AM,46.4,35.6,66,29.85,10.0,NW,6.9,-,N/A,,Overcast,310,2011-10-19 05:35:00
12:55 AM,46.4,35.6,66,29.85,10.0,NW,6.9,-,N/A,,Overcast,320,2011-10-19 05:55:00
1:15 AM,46.4,35.6,66,29.85,10.0,NW,8.1,-,N/A,,Overcast,310,2011-10-19 06:15:00
1:35 AM,44.6,35.6,71,29.84,10.0,NW,6.9,-,N/A,,Overcast,310,2011-10-19 06:35:00
1:55 AM,46.4,35.6,66,29.84,10.0,NW,6.9,-,N/A,,Overcast,320,2011-10-19 06:55:00
2:15 AM,46.4,35.6,66,29.84,10.0,NNW,10.4,-,N/A,,Overcast,330,2011-10-19 07:15:00
2:35 AM,46.4,35.6,66,29.83,10.0,NNW,9.2,-,N/A,,Overcast,330,2011-10-19 07:35:00
2:55 AM,46.4,35.6,66,29.83,10.0,NNW,9.2,-,N/A,,Overcast,330,2011-10-19 07:55:00
3:15 AM,46.4,35.6,66,29.82,10.0,NNW,10.4,-,N/A,,Overcast,330,2011-10-19 08:15:00
3:35 AM,46.4,35.6,66,29.82,10.0,NNW,10.4,-,N/A,,Overcast,330,2011-10-19 08:35:00
3:55 AM,46.4,35.6,66,29.82,10.0,NNW,10.4,-,N/A,,Overcast,330,2011-10-19 08:55:00
4:15 AM,46.4,35.6,66,29.82,10.0,NNW,10.4,-,N/A,,Overcast,330,2011-10-19 09:15:00
4:35 AM,46.4,35.6,66,29.82,10.0,NNW,12.7,-,N/A,,Overcast,330,2011-10-19 09:35:00
4:55 AM,44.6,35.6,71,29.82,10.0,NW,10.4,-,N/A,,Overcast,320,2011-10-19 09:55:00
5:15 AM,44.6,35.6,71,29.82,10.0,NNW,10.4,-,N/A,,Overcast,330,2011-10-19 10:15:00
5:35 AM,44.6,35.6,71,29.82,10.0,NNW,12.7,-,N/A,,Overcast,330,2011-10-19 10:35:00
5:55 AM,44.6,35.6,71,29.82,10.0,NW,13.8,-,N/A,,Overcast,320,2011-10-19 10:55:00
6:15 AM,44.6,35.6,71,29.82,10.0,NNW,11.5,18.4,N/A,,Overcast,330,2011-10-19 11:15:00
6:35 AM,44.6,35.6,71,29.82,10.0,NNW,13.8,-,N/A,,Overcast,330,2011-10-19 11:35:00
6:55 AM,44.6,35.6,71,29.82,10.0,NNW,13.8,-,N/A,,Overcast,330,2011-10-19 11:55:00
7:15 AM,44.6,35.6,71,29.82,10.0,NNW,12.7,21.9,N/A,,Overcast,340,2011-10-19 12:15:00
7:35 AM,44.6,35.6,71,29.82,10.0,NNW,12.7,-,N/A,,Overcast,340,2011-10-19 12:35:00
7:55 AM,44.6,35.6,71,29.82,10.0,NNW,13.8,20.7,N/A,,Overcast,340,2011-10-19 12:55:00
8:15 AM,46.4,35.6,66,29.82,10.0,NNW,13.8,19.6,N/A,,Overcast,340,2011-10-19 13:15:00
8:35 AM,46.4,35.6,66,29.83,10.0,NNW,17.3,-,N/A,,Overcast,340,2011-10-19 13:35:00
8:55 AM,46.4,35.6,66,29.84,10.0,NNW,18.4,-,N/A,,Overcast,340,2011-10-19 13:55:00
9:15 AM,46.4,35.6,66,29.83,10.0,North,17.3,-,N/A,,Mostly Cloudy,350,2011-10-19 14:15:00
9:35 AM,48.2,35.6,62,29.83,10.0,NNW,19.6,25.3,N/A,,Mostly Cloudy,340,2011-10-19 14:35:00
9:55 AM,48.2,33.8,58,29.83,10.0,North,19.6,26.5,N/A,,Scattered Clouds,350,2011-10-19 14:55:00
10:15 AM,50.0,33.8,54,29.83,10.0,North,21.9,25.3,N/A,,Mostly Cloudy,350,2011-10-19 15:15:00
10:35 AM,50.0,33.8,54,29.82,10.0,NNW,20.7,24.2,N/A,,Overcast,330,2011-10-19 15:35:00
10:55 AM,50.0,32.0,50,29.82,10.0,North,21.9,29.9,N/A,,Overcast,350,2011-10-19 15:55:00
11:15 AM,50.0,33.8,54,29.82,10.0,NNW,18.4,27.6,N/A,,Overcast,340,2011-10-19 16:15:00
11:35 AM,50.0,32.0,50,29.82,10.0,NNW,24.2,35.7,N/A,,Overcast,330,2011-10-19 16:35:00
11:55 AM,51.8,30.2,44,29.82,10.0,NNW,26.5,32.2,N/A,,Mostly Cloudy,340,2011-10-19 16:55:00
12:15 PM,51.8,30.2,44,29.81,10.0,NNW,21.9,-,N/A,,Mostly Cloudy,340,2011-10-19 17:15:00
12:35 PM,51.8,30.2,44,29.81,10.0,NNW,25.3,29.9,N/A,,Mostly Cloudy,340,2011-10-19 17:35:00
12:55 PM,50.0,32.0,50,29.80,10.0,NNW,23.0,28.8,N/A,,Mostly Cloudy,330,2011-10-19 17:55:00
1:15 PM,51.8,30.2,44,29.79,10.0,NW,24.2,31.1,N/A,,Overcast,320,2011-10-19 18:15:00
1:35 PM,50.0,32.0,50,29.79,10.0,NW,19.6,28.8,N/A,,Overcast,320,2011-10-19 18:35:00
1:55 PM,50.0,32.0,50,29.78,10.0,NW,21.9,27.6,N/A,,Overcast,320,2011-10-19 18:55:00
2:15 PM,50.0,32.0,50,29.78,10.0,NNW,26.5,29.9,N/A,,Overcast,330,2011-10-19 19:15:00
2:35 PM,48.2,32.0,54,29.78,10.0,NW,19.6,27.6,N/A,,Overcast,320,2011-10-19 19:35:00
2:55 PM,48.2,32.0,54,29.78,10.0,NW,16.1,24.2,N/A,,Overcast,320,2011-10-19 19:55:00
3:15 PM,48.2,32.0,54,29.78,10.0,NNW,19.6,26.5,N/A,,Overcast,330,2011-10-19 20:15:00
3:35 PM,48.2,32.0,54,29.78,10.0,NNW,20.7,26.5,N/A,,Overcast,330,2011-10-19 20:35:00
3:55 PM,50.0,32.0,50,29.78,10.0,NNW,12.7,26.5,N/A,,Overcast,330,2011-10-19 20:55:00
4:15 PM,50.0,32.0,50,29.78,10.0,NW,18.4,25.3,N/A,,Overcast,310,2011-10-19 21:15:00
4:35 PM,50.0,32.0,50,29.78,10.0,NW,23.0,27.6,N/A,,Overcast,320,2011-10-19 21:35:00
4:55 PM,50.0,32.0,50,29.79,10.0,NNW,19.6,29.9,N/A,,Overcast,330,2011-10-19 21:55:00
5:15 PM,50.0,32.0,50,29.79,10.0,NNW,17.3,25.3,N/A,,Overcast,330,2011-10-19 22:15:00
5:35 PM,50.0,32.0,50,29.79,10.0,NW,23.0,26.5,N/A,,Overcast,320,2011-10-19 22:35:00
5:55 PM,50.0,32.0,50,29.79,10.0,NW,18.4,26.5,N/A,,Overcast,320,2011-10-19 22:55:00
6:15 PM,50.0,32.0,50,29.80,10.0,NW,18.4,23.0,N/A,,Overcast,320,2011-10-19 23:15:00
6:35 PM,50.0,32.0,50,29.80,10.0,NW,17.3,26.5,N/A,,Overcast,320,2011-10-19 23:35:00
6:55 PM,50.0,32.0,50,29.79,10.0,NW,19.6,27.6,N/A,,Overcast,320,2011-10-19 23:55:00
7:15 PM,50.0,32.0,50,29.80,10.0,NW,17.3,25.3,N/A,,Overcast,320,2011-10-20 00:15:00
7:35 PM,50.0,32.0,50,29.80,10.0,NW,15.0,21.9,N/A,,Overcast,310,2011-10-20 00:35:00
7:55 PM,50.0,32.0,50,29.80,10.0,NW,17.3,20.7,N/A,,Overcast,310,2011-10-20 00:55:00
8:15 PM,50.0,32.0,50,29.79,10.0,NW,16.1,19.6,N/A,,Overcast,310,2011-10-20 01:15:00
8:35 PM,50.0,32.0,50,29.79,10.0,NW,16.1,25.3,N/A,,Overcast,310,2011-10-20 01:35:00
8:55 PM,50.0,32.0,50,29.79,10.0,NW,15.0,24.2,N/A,,Overcast,320,2011-10-20 01:55:00
9:15 PM,50.0,32.0,50,29.79,10.0,NW,13.8,23.0,N/A,,Overcast,310,2011-10-20 02:15:00
9:35 PM,48.2,32.0,54,29.79,10.0,NW,15.0,24.2,N/A,,Overcast,310,2011-10-20 02:35:00
9:55 PM,46.4,33.8,62,29.79,10.0,NW,13.8,20.7,N/A,Rain,Light Rain,310,2011-10-20 02:55:00
10:15 PM,46.4,32.0,57,29.78,10.0,NW,13.8,21.9,N/A,,Overcast,310,2011-10-20 03:15:00
10:35 PM,46.4,32.0,57,29.78,10.0,NW,16.1,20.7,N/A,,Overcast,310,2011-10-20 03:35:00
10:55 PM,48.2,32.0,54,29.77,10.0,WNW,17.3,23.0,N/A,,Overcast,300,2011-10-20 03:55:00
11:15 PM,46.4,32.0,57,29.76,10.0,WNW,19.6,25.3,N/A,,Overcast,300,2011-10-20 04:15:00
11:35 PM,46.4,32.0,57,29.76,10.0,WNW,15.0,23.0,N/A,,Overcast,300,2011-10-20 04:35:00
11:55 PM,46.4,32.0,57,29.75,10.0,WNW,17.3,25.3,N/A,,Overcast,300,2011-10-20 04:55:00